Probability
0 0 0 0 0 0 0 0 0 0 0 0 0 0 0 0 0 0 0 0 0 0 0 0 0 0 0 0 0 0 0 0 0 0 0 0 0 0 0 0 0 0 0 0
0 0 0 0 0 0 0 0 0 0 0 0 0 0 0 0 0 0 0 0 0 0 0 0 0 0 0 0 0 0 0 0 0 0 0 0 0 0 0 0 0 0 0 0
0 0 0 0 0 0 0 0 0 0 0 0 0 0 0 0 0 0 0 0 0 0 0 0 0 0 0 0 0 0 0 0 0 0 0 0 0 0 0 0 0 0 0 0
0 0 0 0 0 0 0 0 0 0 0 0 0 0 0 0 0 0 0 0 0 0 0 0 0 0 0 0 0 0 0 0 0 0 0 0 0 0 0 0 0 0 0 0
0 0 0 0 0 0 0 0 0 0 0 0 0 0 0 0 0 0 0 0 0 0 0 0 0 0 0 0 0 0 0 0 0 0 0 0 0 0 0 0 0 0 0 0
0 0 0 0 0 0 0 0 0 0 0 0 0 0 0 0 0 0 0 0 0 0 0 0 0 0 0 0 0 0 0 0 0 0 0 0 0 0 0 0 0 0 0 0
0 0 0 0 0 0 0 0 0 0 0 0 0 0 0 0 0 0 0 0 0 0 0 0 0 0 0 0 0 0 0 0 0 0 0 0 0 0 0 0 0 0 0 0
0 0 0 0 0 0 0 0 0 0 0 0 0 0 0 0 0 0 0 0 0 0 0 0 0 0 0 0 0 0 0 0 0 0 0 0 0 0 0 0 0 0 0 0
0 0 0 0 0 0 0 0 0 0 0 0 0 0 0 0 0 0 0 0 0 0 0 0 0 0 0 0 0 0 0 0 0 0 0 0 0 0 0 0 0 0 0 0
0 0 0 0 0 0 0 0 0 0 0 0 0 0 0 0 0 0 0 0 0 0 0 0 0 0 0 0 0 0 0 0 0 0 0 0 0 0 0 0 0 0 0 0
0 0 0 0 0 0 0 0 0 0 0 0 0 0 0 0 0 0 0 0 0 0 0 0 0 0 0 0 0 0 0 0 0 0 0 0 0 0 0 0 0 0 0 0
0 0 0 0 0 0 0 0 0 0 0 0 0 0 0 0 0 0 0 0 0 0 0 0 0 0 0 0 0 0 0 0 0 0 0 0 0 0 0 0 0 0 0 0
0 0 0 0 0 0 0 0 0 0 0 0 0 0 0 0 0 0 0 0 0 0 0 0 0 0 0 0 0 0 0 0 0 0 0 0 0 0 0 0 0 0 0 0
0 0 0 0 0 0 0 0 0 0 0 0 0 0 0 0 0 0 0 0 0 0 0 0 0 0 0 0 0 0 0 0 0 0 0 0 0 0 0 0 0 0 0 0
0 0 0 0 0 0 0 0 0 0 0 0 0 0 0 0 0 0 0 0 0 0 0 0 0 0 0 0 0 0 0 0 0 0 0 0 0 0 0 0 0 0 0 0
0 0 0 0 0 0 0 0 0 0 0 0 0 0 0 0 0 0 0 0 0 0 0 0 0 0 0 0 0 0 0 0 0 0 0 0 0 0 0 0 0 0 0 0
0 0 0 0 0 0 0 0 0 0 0 0 0 0 0 0 0 0 0 0 0 0 0 0 0 0 0 0 0 0 0 0 0 0 0 0 0 0 0 0 0 0 0 0
0 0 0 0 0 0 0 0 0 0 0 0 0 0 0 0 0 0 0 0 0 0 0 0 0 0 0 0 0 0 0 0 0 0 0 0 0 0 0 0 0 0 0 0
0 0 0 0 0 0 0 0 0 0 0 0 0 0 0 0 0 0 0 0 0 0 0 0 0 0 0 0 0 0 0 0 0 0 0 0 0 0 0 0 0 0 0 0
0 0 0 0 0 0 0 0 0 0 0 0 0 0 0 0 0 0 0 0 0 0 0 0 0 0 0 0 0 0 0 0 0 0 0 0 0 0 0 0 0 0 0 0
0 0 0 0 0 0 0 0 0 0 0 0 0 0 0 0 0 0 0 0 0 0 0 0 0 0 0 0 0 0 0 0 0 0 0 0 0 0 0 0 0 0 0 0
0 0 0 0 0 0 0 0 0 0 0 0 0 0 0 0 0 0 0 0 0 0 0 0 0 0 0 0 0 0 0 0 0 0 0 0 0 0 0 0 0 0 0 0
0 0 0 0 0 0 0 0 0 0 0 0 0 0 0 0 0 0 0 0 0 0 0 0 0 0 0 0 0 0 0 0 0 0 0 0 0 0 0 0 0 0 0 0
0 0 0 0 0 0 0 0 0 0 0 0 0 0 0 0 0 0 0 0 0 0 0 0 0 0 0 0 0 0 0 0 0 0 0 0 0 0 0 0 0 0 0 0
0 0 0 0 0 0 0 0 0 0 0 0 0 0 0 0 0 0 0 0 0 0 0 0 0 0 0 0 0 0 0 0 0 0 0 0 0 0 0 0 0 0 0 0
0 0 0 0 0 0 0 0 0 0 0 0 0 0 0 0 0 0 0 0 0 0 0 0 0 0 0 0 0 0 0 0 0 0 0 0 0 0 0 0 0 0 0 0
0 0 0 0 0 0 0 0 0 0 0 0 0 0 0 0 0 0 0 0 0 0 0 0 0 0 0 0 0 0 0 0 0 0 0 0 0 0 0 0 0 0 0 0
Wind_Speed
11 12 12 13 13 11 12 13 15 17 17 16 9 3 5 5 6 5 5 4 5 6 6 7 7 7 7 7 7 6 6 6 7 7 6 6 7 7 8 8 9 9 9 10
10 10 12 17 18 16 16 15 16 16 16 7 2 4 5 6 7 7 6 6 7 7 8 8 8 8 8 8 7 7 7 8 8 7 6 7 7 8 8 9 9 8 9 10
6 7 11 13 11 10 8 6 7 9 6 4 4 5 6 7 8 6 6 7 8 8 7 7 8 8 8 8 7 8 8 9 8 7 7 7 8 8 9 9 9 9 10 10
5 5 10 9 4 2 3 5 6 7 3 4 4 4 5 7 5 7 8 9 8 7 7 7 7 8 8 8 8 8 9 9 8 7 8 8 8 9 9 8 8 9 10 11
3 5 11 10 6 2 2 5 4 3 4 5 5 6 6 5 7 8 8 8 7 6 6 7 8 8 8 8 9 9 9 9 8 7 8 8 9 10 9 8 8 8 8 9
4 5 8 5 2 3 3 4 5 5 5 6 7 7 6 7 9 9 9 7 7 6 7 7 8 8 9 9 9 10 9 9 8 8 9 9 10 9 8 7 8 8 8 8
6 6 9 4 4 1 2 2 2 4 5 6 5 6 8 9 9 8 8 8 7 7 7 7 8 8 9 10 10 10 9 9 9 9 9 10 9 8 8 8 8 8 9 8
6 7 9 2 2 2 4 5 5 6 5 6 7 8 9 9 9 8 7 7 7 7 8 8 8 9 10 11 10 9 9 10 10 9 9 9 10 9 8 8 8 8 8 8
5 7 3 1 3 5 6 6 6 6 6 7 8 9 9 8 7 7 7 7 7 7 9 9 9 9 11 12 10 10 10 10 10 10 9 9 9 10 8 7 7 7 7 8
6 6 6 8 8 7 7 7 7 7 8 8 8 8 8 7 6 6 7 7 7 8 10 11 10 9 10 12 11 11 11 10 9 9 10 10 8 7 7 7 8 8 8 8
9 9 9 7 6 9 9 9 9 8 8 7 7 7 7 6 6 6 7 7 7 9 11 12 11 11 11 11 11 11 11 9 9 9 10 10 8 8 9 8 10 11 8 7
10 8 8 9 8 9 10 9 8 8 7 6 6 7 7 6 6 7 8 8 9 10 12 13 12 12 11 10 10 11 10 9 8 8 9 9 10 10 12 15 21 21 20 16
7 6 7 9 9 7 7 8 7 6 7 7 6 6 6 6 6 8 9 10 11 12 13 14 13 13 11 9 9 10 10 11 9 9 10 10 10 10 11 12 16 18 19 19
5 6 7 7 8 7 7 6 6 6 6 6 6 6 6 8 9 10 11 11 12 14 14 14 13 12 11 10 10 10 11 13 13 10 10 10 10 10 10 11 11 9 11 16
5 5 6 8 7 6 5 5 6 6 6 6 6 7 8 9 11 12 12 12 13 13 12 12 14 14 12 11 10 11 10 9 10 10 10 10 10 10 10 10 10 10 7 8
5 6 6 6 6 6 5 5 6 6 6 7 8 9 9 10 12 13 13 12 12 13 13 13 14 14 12 11 10 9 9 18 17 12 11 10 10 10 10 9 9 9 8 6
4 5 5 6 6 6 6 6 6 7 8 9 10 11 11 11 12 13 12 10 11 14 13 13 14 12 11 10 10 9 9 12 19 14 10 10 10 10 9 9 8 8 7 7
5 5 6 6 6 7 7 7 7 8 9 10 11 11 11 12 13 14 14 13 13 13 13 13 12 11 10 10 9 9 9 10 10 11 10 10 11 9 9 9 9 9 7 7
5 6 7 7 7 7 7 8 9 9 10 10 11 11 11 11 12 13 12 13 15 17 14 10 19 15 11 12 15 8 9 11 11 11 10 14 13 9 8 8 8 7 6 5
7 7 8 8 8 8 9 9 10 10 10 9 10 11 12 12 11 12 13 13 12 12 12 14 14 10 10 11 16 9 10 11 12 12 10 9 10 9 8 8 7 6 5 4
8 8 9 9 10 9 9 9 10 11 10 9 10 12 13 13 11 11 12 14 12 11 12 19 12 9 9 13 18 10 11 11 11 11 10 9 9 9 8 6 6 5 4 3
8 8 9 9 10 10 8 8 9 10 11 11 11 11 12 13 12 11 11 11 12 17 13 9 8 14 20 22 11 10 11 11 10 9 9 9 8 8 7 6 5 4 3 2
8 9 9 9 10 10 10 9 9 10 11 12 11 12 12 12 10 11 12 9 8 17 14 9 17 26 29 16 10 10 11 11 10 9 9 8 7 7 6 5 4 3 2 1
9 10 10 9 9 10 13 12 10 9 10 11 11 11 11 10 9 8 8 15 20 22 12 16 26 27 25 11 9 10 10 10 9 9 9 7 6 6 5 4 3 2 1 1
10 10 10 9 10 10 11 10 9 9 9 8 9 9 8 7 8 9 9 10 17 20 11 15 24 25 16 10 10 10 10 9 10 9 7 7 6 5 4 3 2 1 1 1
9 9 9 9 9 8 7 7 7 7 7 8 7 6 6 6 7 8 8 10 12 18 13 10 11 15 11 10 11 11 10 10 10 7 6 6 5 4 3 2 1 1 1 2
9 9 7 7 7 7 6 6 7 7 7 8 9 7 7 7 7 8 10 9 9 9 9 9 10 10 10 11 11 10 9 8 7 6 6 5 4 3 2 2 0 1 2 2
Wind_Direction
271 283 290 286 281 272 262 260 266 275 282 293 310 11 28 13 356 340 330 337 340 330 320 317 317 315 314 313 311 310 304 293 281 274 272 273 273 271 265 257 251 245 242 241
276 280 283 279 271 264 262 259 261 272 279 289 50 40 16 357 333 316 315 331 333 325 320 318 317 315 315 311 309 310 303 293 287 283 279 275 273 271 268 263 257 249 244 243
276 293 301 274 261 250 241 246 262 274 293 21 28 21 355 323 306 314 334 336 326 319 316 317 315 314 312 306 308 309 302 295 290 284 279 275 272 271 267 262 255 249 245 241
283 299 250 250 291 274 266 280 289 290 342 32 21 346 310 297 332 345 334 324 317 314 315 312 311 312 310 312 312 307 302 298 295 291 285 281 277 273 270 264 259 254 248 243
252 266 276 275 282 298 302 290 302 335 17 359 339 324 305 335 354 331 319 314 311 313 315 316 314 312 314 310 306 304 300 297 297 295 292 289 284 278 274 271 268 263 256 248
221 238 255 279 70 54 23 295 35 29 351 335 341 321 303 337 331 322 319 317 319 322 319 313 309 313 311 304 303 300 298 298 300 299 295 290 284 282 280 274 272 270 265 255
232 247 262 278 129 120 239 278 6 338 330 333 320 292 306 323 319 314 315 317 320 320 313 306 309 311 303 300 297 295 298 301 300 296 292 289 287 283 282 279 278 276 273 265
201 222 253 149 138 235 289 329 333 342 347 333 315 311 314 313 314 318 317 316 318 314 305 303 305 305 300 297 296 298 300 299 297 294 293 295 290 287 283 282 283 281 279 276
213 225 269 101 316 315 333 335 346 347 337 325 313 310 312 311 313 311 309 310 309 306 303 301 301 301 300 300 303 303 300 298 297 296 295 293 290 290 289 285 280 280 278 280
280 281 309 321 321 333 354 352 343 335 328 321 310 311 311 310 308 306 304 304 304 304 302 300 300 300 299 304 305 303 301 300 299 299 298 294 287 284 285 284 281 279 280 280
273 283 295 298 334 347 343 338 331 326 323 318 315 311 307 302 298 298 299 298 300 298 297 299 304 305 303 303 304 302 299 298 298 296 295 294 288 283 283 273 277 284 276 269
273 299 310 316 333 336 330 325 324 323 320 316 308 299 297 291 292 296 299 300 301 299 300 302 303 301 300 300 302 303 303 301 298 296 295 292 292 290 280 280 290 289 285 279
296 324 321 319 323 327 319 319 320 316 308 303 298 291 293 294 296 297 298 300 300 299 298 298 298 298 300 305 307 304 300 299 297 294 294 293 292 293 296 294 289 288 287 287
332 333 315 315 314 314 310 309 306 297 290 285 288 295 298 296 293 293 293 294 295 295 295 295 297 300 305 306 302 295 294 296 297 292 291 291 290 290 290 293 296 291 286 285
321 320 302 302 302 305 309 308 304 297 294 296 300 299 296 294 293 292 292 292 292 292 295 299 301 301 301 297 294 293 294 293 290 288 288 287 287 287 286 287 289 290 287 283
316 308 300 302 307 312 317 313 304 297 298 297 296 292 290 287 288 290 291 293 300 302 300 297 294 295 296 293 292 293 292 295 298 294 291 289 287 288 290 290 290 289 288 284
297 296 303 305 304 303 301 297 291 289 292 292 290 290 291 291 292 294 298 301 296 292 292 292 292 292 290 290 292 293 292 294 297 295 290 290 291 291 291 291 289 288 282 278
257 266 274 280 286 293 295 293 290 288 287 286 289 289 290 295 298 300 300 300 299 296 293 290 290 293 291 292 292 290 291 291 291 291 293 294 293 290 289 287 286 286 284 283
265 269 274 277 279 282 284 287 285 283 283 286 288 289 289 290 291 294 300 303 302 301 299 292 300 304 296 295 301 293 293 294 294 294 293 294 296 291 289 287 285 281 281 275
271 274 275 277 278 275 276 279 280 282 283 285 288 291 292 291 291 294 296 292 288 287 292 298 300 296 296 296 304 296 294 294 294 294 293 291 292 293 290 288 285 283 278 272
266 271 273 273 272 269 268 274 281 285 287 286 286 287 289 291 291 291 294 296 294 291 296 304 306 301 301 303 306 299 296 295 294 293 293 293 294 293 292 289 287 284 277 269
265 267 269 271 274 277 275 274 279 286 290 289 285 284 288 292 292 288 280 285 294 301 306 301 300 304 309 312 303 298 297 296 294 293 292 293 294 295 294 290 286 281 272 257
269 271 274 275 276 280 284 283 281 281 282 282 284 284 284 285 287 291 295 293 295 304 308 300 307 312 314 314 302 300 298 296 295 295 295 294 293 293 293 290 286 281 269 232
269 270 270 271 274 280 283 281 274 270 271 275 275 274 277 284 284 276 279 299 308 309 307 306 312 314 316 311 302 300 297 295 294 294 293 293 294 294 293 292 288 277 249 192
264 265 267 268 269 270 272 274 276 275 274 274 273 271 269 270 281 293 296 298 304 310 307 309 312 314 313 303 302 300 298 295 296 298 298 303 303 299 295 293 285 265 190 162
264 264 263 258 258 264 267 269 272 272 275 281 282 279 279 280 285 291 295 297 298 307 309 305 306 308 306 304 304 302 300 300 302 304 306 304 300 299 298 294 274 209 154 143
266 265 266 266 262 258 258 260 266 271 272 279 286 286 285 288 290 293 295 297 300 300 301 304 305 304 305 306 305 304 302 301 302 304 303 300 298 296 290 279 229 143 136 136